Regional Weather Roundup
Issued by NWS Mt. Holly, NJ

Home | Current Version | Previous Version | Text Only | Print | Product List | Glossary On
Versions: 1 2 3 4 5 6 7 8 9 10 11 12 13 14 15 16 17 18 19 20 21 22 23 24 25 26 27 28 29 30 31 32 33 34 35 36 37 38 39 40 41 42 43 44 45 46 47 48 49 50
000
ASUS41 KPHI 271111
RWRPHI

REGIONAL WEATHER ROUNDUP
NATIONAL WEATHER SERVICE MOUNT HOLLY NJ
600 AM EST FRI FEB 27 2015

NOTE:  "FAIR" INDICATES FEW OR NO CLOUDS BELOW 12,000 FEET WITH NO
SIGNIFICANT WEATHER AND/OR OBSTRUCTIONS TO VISIBILITY.

 * = STATION DOES NOT REPORT PRECIPITATION (E.G. RAIN, SNOW, ETC.)
        OR FOG.

NJZ015>026-271200-
SOUTHERN NEW JERSEY

CITY           SKY/WX    TMP DP  RH WIND       PRES   REMARKS
POMONA         CLOUDY    17  12  80 N3        30.28R
RIO GRANDE*    CLOUDY    19  16  86 N6        30.27R WCI  11
MILLVILLE      CLOUDY    23  16  74 N6        30.28R WCI  16
WRIGHTSTOWN    FLURRIES  21  14  73 N7        30.27R WCI  12
MOUNT HOLLY    CLOUDY    22  13  68 N7        30.31R WCI  13
TRENTON        CLOUDY    20   9  62 N9        30.29R WCI   9

$$
NJZ001>014-271200-
NORTHERN NEW JERSEY

CITY           SKY/WX    TMP DP  RH WIND       PRES   REMARKS
SUSSEX         CLOUDY     6   0  76 CALM      30.27R
ANDOVER*         N/A     12   4  70 VRB3      30.28R
MORRISTOWN     CLOUDY    19   7  58 N3        30.30R
NEWARK         CLOUDY    19   8  62 N12       30.31R WCI   7
TETERBORO      MOCLDY    17   6  62 N6        30.30R WCI   9
CALDWELL       CLOUDY    15   6  67 CALM      30.31R
SOMERVILLE     CLOUDY    18   5  57 N7        30.29R WCI   9
ALLAIRE*       CLOUDY    19   9  63 NW6       30.27R WCI  11
TOMS RIVER*    CLOUDY    19  16  86 N7        30.29R WCI  10

$$
PAZ043-044-047-054-055-060>062-066>071-271200-
EASTERN PENNSYLVANIA

CITY           SKY/WX    TMP DP  RH WIND       PRES   REMARKS
PHILADELPHIA   LGT SNOW  24  15  68 N9        30.31R WCI  14
NORTH PHILA    CLOUDY    23  11  60 N9        30.32R WCI  13
BLUE BELL      CLOUDY    23  16  74 N3        30.29R
DOYLESTOWN     CLOUDY    18  10  71 N6        30.28R WCI  10
QUAKERTOWN*    CLOUDY    18  10  73 N5        30.29R WCI  11
POTTSTOWN      CLOUDY    19   8  62 N8        30.31R WCI   9
LANCASTER      LGT SNOW  20  13  74 N7        30.29R WCI  11
COATESVILLE    LGT SNOW  21  18  86 N5        30.26R WCI  15
READING        CLOUDY    18   6  59 N9        30.30R WCI   7
ALLENTOWN      CLOUDY    16   4  59 NW7       30.30R WCI   6
MOUNT POCONO   CLEAR      4  -1  80 NW9       30.14R WCI -10
HAZLETON       FLURRIES   9   1  72 N6        30.23R WCI  -1
WILKES BARRE   CLOUDY     9   0  67 N7        30.28R WCI  -2

$$
DEZALL-MDZ008-012-015-019-020-271200-
DELAWARE AND EASTERN MARYLAND

CITY           SKY/WX    TMP DP  RH WIND       PRES   REMARKS
WILMINGTON     LGT SNOW  24  19  81 N9        30.30R WCI  14
DOVER          CLOUDY    24  24  99 NW5       30.28R WCI  19
GEORGETOWN     CLOUDY    27  17  66 CALM      30.27R
EASTON         CLOUDY    28  27  93 CALM      30.30R
ABERDEEN       LGT SNOW  27  23  86 N5        30.28  WCI  21
PATUXENT       CLOUDY    27  23  85 CALM      30.27R
OCEAN CITY     CLOUDY    19  16  88 MISG      30.26R FOG
WALLOPS ISLAND CLEAR     18  16  92 NW3       30.27R
CAMBRIDGE      MOCLDY    28  25  86 CALM      30.26R
SALISBURY      CLOUDY    24  19  81 CALM      30.26R

$$
PAZ001-021-NYZ056-072-MDZ011-DCZ001-271200-
OTHER NEARBY LOCATIONS

CITY           SKY/WX    TMP DP  RH WIND       PRES   REMARKS
HARRISBURG     FLURRIES  20  11  68 NW9       30.31R WCI   9
STATE COLLEGE  LGT SNOW  12   9  85 CALM      30.27R
WILLIAMSPORT   PTCLDY    12   1  61 NW3       30.34R
BINGHAMTON     PTCLDY     2  -1  88 W5        30.21R WCI  -8
NEW YORK CITY  MOCLDY    19   3  49 VRB5      30.31R WCI  12
BALTIMORE      CLOUDY    27  22  81 CALM      30.27R
WASHINGTON DC  FLURRIES  34  23  64 NW6       30.28R WCI  29

$$


USA.gov is the U.S. government's official web portal to all federal, state and local government web resources and services.